Location: Acts Church of Fort Worth
(32.6786°N, 97.2668°W)
Time: 21:51:40
(UTC+00:00)

BlueWalker 3 - Pass Details

Date: 18 January 2026
Orbit: 450 x 461 km, 53.2° (Epoch: 10 February)

Event Time Altitude Azimuth Distance (km) Brightness Sun altitude
Rises 01:52:02 0° 229° (SW) 2,442 6.3 -25.8°
Reaches altitude 10° 01:54:10 10° 233° (SW) 1,572 5.2 -26.3°
Enters shadow 01:56:08 30° 244° (WSW) 830 3.6 -26.7°
